Regional Weather Roundup
Issued by NWS

Home | Current Version | Previous Version | Text Only | Print | Product List | Glossary Off
Versions: 1 2 3 4 5 6 7 8 9 10 11 12 13 14 15 16 17 18 19 20 21 22 23 24 25 26 27 28 29 30 31 32 33 34 35 36 37 38 39 40 41 42 43 44 45 46 47 48 49 50

000
ASUS43 KDMX 191307
RWRIA

WEATHER ROUNDUP FOR IOWA
NATIONAL WEATHER SERVICE DES MOINES IA
800 AM CDT TUE AUG 19 2014

NOTE: "FAIR" INDICATES FEW OR NO CLOUDS BELOW 12,000 FEET WITH NO
SIGNIFICANT WEATHER AND/OR OBSTRUCTIONS TO VISIBILITY.

* - THESE STATIONS ARE NOT NWS STATIONS...THUS NOT UNDER NWS
QUALITY CONTROL.  THEY ALSO DO NOT REPORT WEATHER SUCH
AS PRECIPITATION OR FOG.

IAZ001>003-012>014-020>022-031>034-043>046-191400-
   NORTHWEST IOWA

CITY           SKY/WX    TMP DP  RH WIND       PRES   REMARKS
CARROLL *      SUNNY     66  64  94 CALM      29.80R
CHEROKEE *     SUNNY     63  63 100 S3        29.81R
DENISON *      SUNNY     66  66 100 CALM      29.80R
LE MARS *      SUNNY     63  61  94 CALM      29.82R
ORANGE CITY *  SUNNY     64  61  88 CALM      29.81S FOG
SHELDON *      SUNNY     64  63  94 NW5       29.80R
SIOUX CITY     SUNNY     67  62  84 NW3       29.82R
SPENCER        SUNNY     65  62  90 W7        29.80R
STORM LAKE *   SUNNY     64  64 100 W7        29.82R
$$

IAZ055>058-069>071-079>083-090>094-191400-
   SOUTHWEST IOWA

CITY           SKY/WX    TMP DP  RH WIND       PRES   REMARKS
ATLANTIC *     CLOUDY    68  66  94 SW3       29.82R
AUDUBON *      SUNNY     70  66  88 CALM      29.82R
CLARINDA *     SUNNY     70  68  94 CALM      29.82S
COUNCIL BLFS * SUNNY     70  70 100 NW5       29.81S
CRESTON *      SUNNY     68  68 100 CALM      29.82R
HARLAN  *      MOSUNNY   66  66 100 CALM      29.86R
LAMONI         CLOUDY    71  69  93 S5        29.81R
RED OAK *      MOSUNNY   70  68  94 CALM      29.81R
SHENANDOAH *   SUNNY     68  68 100 SW5       29.82R
$$

IAZ047>049-059>061-072>074-084-191400-
   CENTRAL IOWA

CITY           SKY/WX    TMP DP  RH WIND       PRES   REMARKS
AMES           MOSUNNY   69  65  86 NW6       29.78R
ANKENY *       SUNNY     72  68  88 CALM      29.79R
CHARITON *     MOSUNNY   73  72  94 W6        29.79F
DES MOINES     PTSUNNY   71  67  87 S7        29.79R
GRINNELL*      MOSUNNY   68  66  94 SW6       29.79R FOG
KNOXVILLE *    SUNNY     72  70  94 W6        29.78S
MARSHALLTOWN   MOSUNNY   68  65  90 W5        29.76R
PELLA *        PTSUNNY   73  70  88 W6        29.80R
PERRY *          N/A     68  66  94 CALM      29.80R
$$

IAZ004>006-015-016-023>025-035-036-191400-
   NORTH CENTRAL IOWA

CITY           SKY/WX    TMP DP  RH WIND       PRES   REMARKS
ALGONA *       SUNNY     66  64  94 W7        29.78R
CLARION *      SUNNY     64  64 100 W6        29.77R
ESTHERVILLE    SUNNY     64  62  93 W5        29.78R
FORT DODGE *   SUNNY     66  63  88 W3        29.79S
MASON CITY     CLOUDY    65  64  97 NW13      29.76R FOG
FOREST CITY *  SUNNY     64  64 100 W8        29.76R
IOWA FALLS *     N/A     68  64  88 W6        29.78R
$$

IAZ007>011-017>019-026>030-037>042-050>054-066-191400-
   NORTHEAST IOWA

CITY           SKY/WX    TMP DP  RH WIND       PRES   REMARKS
CEDAR RAPIDS   MOSUNNY   70  70 100 W8        29.75R FOG
CHARLES CITY * CLOUDY    64  64 100 W8        29.75R FOG
CLINTON *      CLOUDY    72  70  94 W8        29.77R
DECORAH *      MOSUNNY   66  64  94 CALM      29.71R
DUBUQUE        PTSUNNY   70  69  97 W7        29.73R FOG
MONTICELLO *   SUNNY     72  70  94 SW7       29.74R
OELWEIN *      SUNNY     66  66 100 NW10      29.74S
WATERLOO       SUNNY     68  64  87 NW10      29.73R
$$

IAZ064-065-067-068-078-191400-
   EAST CENTRAL IOWA

CITY           SKY/WX    TMP DP  RH WIND       PRES   REMARKS
DAVENPORT      MOSUNNY   73  69  87 W10       29.75R
IOWA CITY      MOSUNNY   71  70  96 W7        29.76R FOG
MT. PLEASANT * CLOUDY    72  70  94 SW6       29.77S FOG
MUSCATINE *    PTSUNNY   73  70  88 SW7       29.75R
QUAD CITIES    MOSUNNY   74  69  85 W13       29.73R
$$

IAZ062-063-075>077-085>089-095>099-191400-
   SOUTHEAST IOWA

CITY           SKY/WX    TMP DP  RH WIND       PRES   REMARKS
BURLINGTON     TSTM      70  69  97 SW6       29.76R FOG
FAIRFIELD *    PTSUNNY   72  70  94 W9        29.78S
FORT MADISON * CLOUDY    72  72 100 SW7       29.78S
KEOKUK *       CLOUDY    72  70  94 SW20G28   29.79R
OSKALOOSA *      N/A     70  70 100 W6        29.79R FOG
CENTERVILLE *  SUNNY     68  68 100 SW5       29.81F
OTTUMWA        PTSUNNY   72  70  93 W9        29.77R
WASHINGTON *   MOSUNNY   72  72 100 SW9       29.76R FOG
$$

ABBREVIATIONS USED IN REMARKS
   TC - TEMPERATURES IN CELSIUS
  WCI - WIND CHILL INDEX
   HX - HEAT INDEX
  VSB - VISIBILITY
$$



USA.gov is the U.S. government's official web portal to all federal, state and local government web resources and services.